Weather in Didim

Turkey     37°21′18″N   27°16′37″E
temp.,
°C
wind,
m/s
gust,
m/s
humid.,
%
clouds,
%
prec.,
mm/h
press.,
hPa
HPBL,
m
7 may, fri
fri700:00+19n127594 0.0 101412
03:00+19n337342 0.0 101343
06:00+18nnw3374100 0.0 101366
09:00+19nne226999 0.0 101453
12:00+22wnw336377 0.0 101468
15:00+21w447488 0.0 101484
18:00+21w337121 0.0 101347
21:00+20se227199 0.0 101311
8 may, sat
sat800:00+20ese336560 0.0 101221
03:00+20se3364100 0.0 101121
06:00+20se4560100 0.0 101041
09:00+20nw446899 0.0 101248
12:00+22ese6958100 0.0 101097
15:00+23sse1458100 0.0 101058
18:00+24se811526 0.0 1010121
21:00+21nnw12680 0.0 101016
9 may, sun
sun900:00+20nnw33700 0.0 101123
03:00+20ene22660 0.0 101115
06:00+18n68700 0.0 1011163
09:00+19n810705 0.0 1013249
12:00+22nnw1012640 0.0 1013154
15:00+22nnw1013620 0.0 1012133
18:00+23nnw912585 0.0 1011117
21:00+21nnw711630 0.0 1012137
10 may, mon
mon1000:00+19n812640 0.0 1012229
03:00+17n710620 0.0 1012239
06:00+17n79610 0.0 1012235
09:00+18n78540 0.0 1013289
12:00+20nw910590 0.0 1012201
15:00+21nw911590 0.0 1011146
18:00+21nw811620 0.0 1010108
21:00+20nnw710670 0.0 1010110
11 may, tue
tue1100:00+19nnw68710 0.0 1011159
03:00+18n79610 0.0 1010222
06:00+17n79600 0.0 1010225
09:00+18n78540 0.0 1010284
12:00+20nw78585 0.0 1011164
15:00+20wnw911644 0.0 1010162
18:00+21wnw811660 0.0 1009127
21:00+20nw68660 0.0 1009100